Date String (YYYY-MM-DD hh:mm:ss) UTC,Instrument flags,absolute air pressure of the measurement (hPa),sample flow rate (lpm),inlet stack bypass flow (lpm),air temperature of the measurement (°C),ambient temperature measured by the external sensor (°C),aerosol sample conditioner tube jacket temperature (°C),OPC LED temperature (°C),internal box temperature (°C),relative humidity of the measurement (%),span deviation,mass concentration of particles derived from Lorenz-Mie calculation of OPC scattering (μg/m³),mass concentration of particles derived from Lorenz-Mie calculation of OPC scattering (μg/m³),mass concentration of particles derived from Lorenz-Mie calculation of OPC scattering (μg/m³)
DateTimeUTC,F1_M11,P_M11,Q1_M11,Q2_M11,T1_M11,T2_M11,T3_M11,T4_M11,T5_M11,U1_M11,ZSPAN_M11,X0_M11,X2_M11,X1_M11
2024-05-23 10:00:00,SystemResetWarning,0820.3,5.00,000.00,028.9,028.0,000.0,037.2,030.6,011.2,0000.0,0008.59,0003.51,0002.57
2024-05-23 10:01:00,SystemResetWarning,0820.3,5.01,000.00,028.9,028.0,000.0,037.2,030.6,011.2,0000.0,0008.50,0003.52,0002.58
2024-05-23 10:02:00,SystemResetWarning,0820.3,5.00,000.00,028.9,028.0,000.0,037.2,030.6,010.9,0000.0,0007.96,0003.56,0002.60
2024-05-23 10:03:00,SystemResetWarning,0820.2,5.00,000.00,028.9,028.0,000.0,037.2,030.6,011.0,0000.0,0007.94,0003.55,0002.59
2024-05-23 10:04:00,SystemResetWarning,0820.3,5.00,000.00,028.9,028.0,000.0,037.2,030.6,011.0,0000.0,0007.84,0003.51,0002.59
2024-05-23 10:05:00,SystemResetWarning,0820.3,5.00,000.00,028.9,028.0,000.0,037.2,030.6,010.9,0000.0,0007.80,0003.51,0002.59
2024-05-23 10:06:00,SystemResetWarning,0820.3,5.00,000.00,028.8,028.0,000.0,037.2,030.6,011.0,0000.0,0008.18,0003.46,0002.58
2024-05-23 10:07:00,SystemResetWarning,0820.3,5.00,000.00,028.8,028.0,000.0,037.2,030.6,011.0,0000.0,0008.12,0003.43,0002.57
2024-05-23 10:08:00,SystemResetWarning,0820.3,5.00,000.00,028.8,028.0,000.0,037.2,030.6,010.9,0000.0,0007.76,0003.45,0002.57
2024-05-23 10:09:00,SystemResetWarning,0820.2,5.00,000.00,028.8,028.0,000.0,037.2,030.5,010.9,0000.0,0007.14,0003.41,0002.55
2024-05-23 10:10:00,SystemResetWarning,0820.1,5.00,000.00,028.8,028.0,000.0,037.2,030.5,010.9,0000.0,0007.75,0003.38,0002.53
2024-05-23 10:11:00,SystemResetWarning,0820.3,5.00,000.00,028.8,028.0,000.0,037.2,030.5,010.9,0000.0,0008.24,0003.38,0002.50
2024-05-23 10:12:00,SystemResetWarning,0820.2,5.00,000.00,028.8,028.0,000.0,037.2,030.5,010.8,0000.0,0008.41,0003.38,0002.49
2024-05-23 10:13:00,SystemResetWarning,0820.5,5.00,000.00,028.8,028.0,000.0,037.2,030.5,010.7,0000.0,0008.48,0003.34,0002.47
2024-05-23 10:14:00,SystemResetWarning,0820.1,5.00,000.00,028.8,028.0,000.0,037.2,030.5,010.7,0000.0,0008.44,0003.31,0002.46
2024-05-23 10:15:00,SystemResetWarning,0820.1,5.00,000.00,028.8,028.0,000.0,037.2,030.5,010.8,0000.0,0008.51,0003.36,0002.47
2024-05-23 10:16:00,SystemResetWarning,0820.1,5.00,000.00,028.8,027.9,000.0,037.2,030.5,010.8,0000.0,0008.45,0003.33,0002.47
2024-05-23 10:17:00,SystemResetWarning,0820.2,4.99,000.00,028.8,027.9,000.0,037.2,030.5,010.9,0000.0,0008.25,0003.37,0002.47
2024-05-23 10:18:00,SystemResetWarning,0820.1,5.00,000.00,028.7,027.9,000.0,037.2,030.5,011.0,0000.0,0008.06,0003.37,0002.46
2024-05-23 10:19:00,SystemResetWarning,0820.1,5.01,000.00,028.7,027.9,000.0,037.2,030.4,011.0,0000.0,0008.30,0003.39,0002.47
2024-05-23 10:20:00,SystemResetWarning,0820.1,5.02,000.00,028.7,027.9,000.0,037.1,030.4,010.8,0000.0,0008.43,0003.42,0002.47
2024-05-23 10:21:00,SystemResetWarning,0820.0,4.99,000.00,028.7,027.9,000.0,037.1,030.4,010.8,0000.0,0007.80,0003.43,0002.45
2024-05-23 10:22:00,SystemResetWarning,0820.0,5.00,000.00,028.7,027.9,000.0,037.1,030.4,010.8,0000.0,0007.23,0003.41,0002.44
2024-05-23 10:23:00,SystemResetWarning,0819.9,5.01,000.00,028.7,027.9,000.0,037.1,030.4,010.7,0000.0,0007.12,0003.45,0002.45
2024-05-23 10:24:00,SystemResetWarning,0819.9,5.00,000.00,028.7,027.9,000.0,037.1,030.4,010.8,0000.0,0006.99,0003.46,0002.46
2024-05-23 10:25:00,SystemResetWarning,0819.9,4.99,000.00,028.7,027.9,000.0,037.1,030.4,010.8,0000.0,0007.06,0003.49,0002.46
2024-05-23 10:26:00,SystemResetWarning,0819.9,5.00,000.00,028.7,027.9,000.0,037.1,030.4,010.8,0000.0,0007.19,0003.48,0002.48
2024-05-23 10:27:00,SystemResetWarning,0820.0,5.00,000.00,028.7,027.9,000.0,037.1,030.4,010.8,0000.0,0007.39,0003.50,0002.48
2024-05-23 10:28:00,SystemResetWarning,0820.1,5.00,000.00,028.7,027.8,000.0,037.1,030.4,010.7,0000.0,0007.96,0003.46,0002.48
2024-05-23 10:29:00,SystemResetWarning,0819.9,5.01,000.00,028.7,027.8,000.0,037.1,030.4,010.7,0000.0,0008.72,0003.48,0002.48
2024-05-23 10:30:00,SystemResetWarning,0820.0,5.00,000.00,028.7,027.8,000.0,037.1,030.4,010.8,0000.0,0008.58,0003.50,0002.48
2024-05-23 10:31:00,SystemResetWarning,0819.9,5.02,000.00,028.7,027.8,000.0,037.0,030.3,010.7,0000.0,0008.59,0003.49,0002.47
2024-05-23 10:32:00,SystemResetWarning,0819.9,5.00,000.00,028.6,027.8,000.0,037.0,030.3,010.6,0000.0,0008.57,0003.49,0002.49
2024-05-23 10:33:00,SystemResetWarning,0819.9,4.99,000.00,028.6,027.8,000.0,037.0,030.3,010.6,0000.0,0008.78,0003.52,0002.51
2024-05-23 10:34:00,SystemResetWarning,0819.8,4.99,000.00,028.6,027.8,000.0,037.0,030.3,010.5,0000.0,0009.21,0003.54,0002.53
2024-05-23 10:35:00,SystemResetWarning,0819.9,5.00,000.00,028.6,027.7,000.0,037.0,030.3,010.5,0000.0,0009.30,0003.55,0002.54
2024-05-23 10:36:00,SystemResetWarning,0819.9,5.00,000.00,028.6,027.7,000.0,037.0,030.2,010.4,0000.0,0009.31,0003.54,0002.56
2024-05-23 10:37:00,SystemResetWarning,0820.1,5.00,000.00,028.5,027.7,000.0,037.0,030.2,010.4,0000.0,0009.42,0003.55,0002.55
2024-05-23 10:38:00,SystemResetWarning,0819.8,5.02,000.00,028.5,027.6,000.0,037.0,030.2,010.7,0000.0,0009.39,0003.54,0002.54
2024-05-23 10:39:00,SystemResetWarning,0819.8,5.01,000.00,028.5,027.6,000.0,036.9,030.2,010.9,0000.0,0009.35,0003.57,0002.56
2024-05-23 10:40:00,SystemResetWarning,0819.8,4.99,000.00,028.5,027.6,000.0,036.9,030.2,011.1,0000.0,0008.79,0003.58,0002.58
2024-05-23 10:41:00,SystemResetWarning,0820.1,4.99,000.00,028.5,027.6,000.0,036.9,030.2,011.0,0000.0,0008.99,0003.57,0002.61
2024-05-23 10:42:00,SystemResetWarning,0819.9,5.01,000.00,028.5,027.6,000.0,036.9,030.1,011.0,0000.0,0009.39,0003.55,0002.63
2024-05-23 10:43:00,SystemResetWarning,0819.8,5.01,000.00,028.5,027.6,000.0,036.9,030.2,011.1,0000.0,0009.29,0003.55,0002.66
2024-05-23 10:44:00,SystemResetWarning,0820.1,5.01,000.00,028.5,027.6,000.0,036.9,030.2,011.1,0000.0,0009.36,0003.53,0002.68
2024-05-23 10:45:00,SystemResetWarning,0819.9,4.99,000.00,028.5,027.6,000.0,036.9,030.2,011.2,0000.0,0008.90,0003.53,0002.70
2024-05-23 10:46:00,SystemResetWarning,0819.9,5.00,000.00,028.5,027.6,000.0,036.9,030.2,011.3,0000.0,0008.68,0003.53,0002.71
2024-05-23 10:47:00,SystemResetWarning,0819.9,5.00,000.00,028.4,027.5,000.0,036.9,030.1,011.2,0000.0,0008.80,0003.55,0002.72
2024-05-23 10:48:00,SystemResetWarning,0819.8,5.00,000.00,028.4,027.5,000.0,036.9,030.1,011.2,0000.0,0008.85,0003.57,0002.74
2024-05-23 10:49:00,SystemResetWarning,0820.0,4.99,000.00,028.4,027.5,000.0,036.9,030.1,011.4,0000.0,0008.75,0003.57,0002.76
2024-05-23 10:50:00,SystemResetWarning,0820.2,5.00,000.00,028.4,027.4,000.0,036.9,030.0,011.5,0000.0,0009.28,0003.59,0002.79
2024-05-23 10:51:00,SystemResetWarning,0820.0,5.00,000.00,028.3,027.4,000.0,036.8,030.0,011.7,0000.0,0009.07,0003.57,0002.79
2024-05-23 10:52:00,SystemResetWarning,0819.8,5.01,000.00,028.3,027.3,000.0,036.8,030.0,011.7,0000.0,0008.76,0003.57,0002.78
2024-05-23 10:53:00,SystemResetWarning,0820.1,5.01,000.00,028.3,027.3,000.0,036.8,030.0,011.8,0000.0,0008.85,0003.58,0002.78
2024-05-23 10:54:00,SystemResetWarning,0820.0,4.99,000.00,028.3,027.3,000.0,036.8,030.0,011.6,0000.0,0009.06,0003.61,0002.79
2024-05-23 10:55:00,SystemResetWarning,0819.7,4.99,000.00,028.2,027.3,000.0,036.8,029.9,011.6,0000.0,0009.63,0003.62,0002.79
2024-05-23 10:56:00,SystemResetWarning,0819.9,5.01,000.00,028.2,027.3,000.0,036.8,029.9,011.8,0000.0,0010.02,0003.61,0002.78
2024-05-23 10:57:00,SystemResetWarning,0819.7,5.02,000.00,028.2,027.3,000.0,036.8,029.9,011.8,0000.0,0010.06,0003.59,0002.79
2024-05-23 10:58:00,SystemResetWarning,0819.7,5.00,000.00,028.2,027.3,000.0,036.7,029.9,011.6,0000.0,0009.96,0003.61,0002.80
2024-05-23 10:59:00,SystemResetWarning,0819.7,4.99,000.00,028.2,027.3,000.0,036.7,029.9,011.5,0000.0,0010.07,0003.58,0002.80
